Highgate, VT

4:34 PM EDT on August 17, 2019 (GMT -0400)
Franklin County State

Weather History for KFSO - June, 2019

Change the Weather History Date:

Thursday, June 6, 2019

  Actual Average (KPBG) Record (KPBG)
Temperature  
Mean Temperature 64 °F -  
Max Temperature 76 °F 71 °F 88 °F (1959)
Min Temperature 51 °F 52 °F 38 °F (1948)
Degree Days  
Heating Degree Days 1    
Growing Degree Days 14 (Base 50)    
Moisture  
Dew Point 51 °F    
Average Humidity 68    
Maximum Humidity 96    
Minimum Humidity 30    
Precipitation  
Precipitation 0.00 in - - ()
Sea Level Pressure  
Sea Level Pressure 29.79 in    
Wind  
Wind Speed 2 mph (NNW)    
Max Wind Speed 10 mph    
Max Gust Speed -    
Visibility 9 miles    
Events Rain    
Averages and records for this station are not official NWS values.
T = Trace of Precipitation, MM = Missing Value Source: NWS Daily Summary

Daily Weather History Graph

Daily Weather History Graph

Search for Another Location

Airport or City:

Astronomy

Jun. 06, 2019 Rise Set
Actual Time 5:07 AM EDT 8:35 PM EDT
Civil Twilight 4:30 AM EDT 9:12 PM EDT
Nautical Twilight 3:42 AM EDT 10:00 PM EDT
Astronomical Twilight 2:40 AM EDT 11:03 PM EDT
Moon 8:13 AM EDT (6/6) 11:48 PM EDT (6/6)
Length of Visible Light 16h 41m
Length of Day
15h 28m
Waxing Crescent, 13% of the Moon is Illuminated
Jun 6
Waxing Crescent
Jun 10
First Quarter
Jun 17
Full
Jun 25
Last Quarter
Jul 2
New

Hourly Weather History & Observations

Time (EDT) Temp. Dew Point Humidity Pressure Visibility Wind Dir Wind Speed Gust Speed Precip Events Conditions
12:15 AM 60.4 °F 59.2 °F 96% 29.71 in 3.0 mi Calm Calm - N/A Rain Rain
12:36 AM 60.3 °F 59.0 °F 96% 29.71 in 5.0 mi Calm Calm - N/A Rain Light Rain
12:55 AM 60.3 °F 59.0 °F 96% 29.70 in 4.0 mi Calm Calm - N/A Rain Light Rain
1:15 AM 60.3 °F 59.0 °F 96% 29.70 in 4.0 mi Calm Calm - N/A Rain Light Rain
1:35 AM 60.3 °F 59.0 °F 96% 29.69 in 5.0 mi Calm Calm - N/A Rain Rain
1:56 AM 60.1 °F 59.0 °F 96% 29.69 in 7.0 mi Calm Calm - N/A   Drizzle
2:16 AM 60.1 °F 59.0 °F 96% 29.69 in 7.0 mi Calm Calm - N/A Rain Rain
2:36 AM 60.1 °F 59.0 °F 96% 29.68 in 5.0 mi Calm Calm - N/A   Drizzle
2:55 AM 60.1 °F 59.0 °F 96% 29.68 in 5.0 mi North 5.8 mph - N/A   Drizzle
3:16 AM 59.5 °F 58.3 °F 96% 29.68 in 10.0 mi NNE 3.5 mph - N/A   Overcast
3:36 AM 59.2 °F 58.1 °F 96% 29.68 in 10.0 mi ENE 4.6 mph - N/A   Overcast
4:15 AM 59.2 °F 58.1 °F 96% 29.69 in 10.0 mi Calm Calm - N/A   Overcast
4:35 AM 59.2 °F 58.1 °F 96% 29.69 in 10.0 mi Calm Calm - N/A   Overcast
4:56 AM 59.0 °F 57.6 °F 95% 29.69 in 7.0 mi Calm Calm - N/A   Overcast
5:15 AM 58.6 °F 57.4 °F 96% 29.70 in 10.0 mi Calm Calm - N/A   Overcast
5:36 AM 58.5 °F 57.2 °F 96% 29.71 in 10.0 mi North 3.5 mph - N/A   Overcast
5:55 AM 58.6 °F 57.4 °F 96% 29.72 in 10.0 mi North 4.6 mph - N/A   Overcast
6:15 AM 58.6 °F 57.4 °F 96% 29.73 in 10.0 mi Calm Calm - N/A   Overcast
6:55 AM 59.4 °F 58.1 °F 96% 29.74 in 7.0 mi Calm Calm - N/A   Overcast
7:16 AM 59.2 °F 57.7 °F 95% 29.75 in 10.0 mi Calm Calm - N/A   Overcast
7:35 AM 58.8 °F 56.1 °F 91% 29.76 in 10.0 mi NW 3.5 mph - N/A   Overcast
7:56 AM 58.6 °F 54.7 °F 87% 29.77 in 10.0 mi Calm Calm - N/A   Overcast
8:15 AM 60.4 °F 54.5 °F 81% 29.77 in 10.0 mi North 4.6 mph - N/A   Scattered Clouds
8:35 AM 60.8 °F 54.3 °F 79% 29.77 in 10.0 mi North 4.6 mph - N/A   Clear
8:56 AM 61.7 °F 54.0 °F 76% 29.78 in 10.0 mi North 6.9 mph - N/A   Clear
9:16 AM 63.0 °F 54.5 °F 74% 29.79 in 10.0 mi North 9.2 mph - N/A   Clear
9:35 AM 62.8 °F 53.2 °F 71% 29.79 in 10.0 mi North 8.1 mph - N/A   Clear
9:55 AM 63.5 °F 52.9 °F 68% 29.79 in 10.0 mi North 8.1 mph - N/A   Clear
10:15 AM 63.7 °F 52.0 °F 66% 29.80 in 10.0 mi North 10.4 mph - N/A   Clear
10:36 AM 64.4 °F 51.4 °F 63% 29.80 in 10.0 mi North 6.9 mph - N/A   Clear
10:55 AM 66.2 °F 51.8 °F 60% 29.81 in 10.0 mi NW 5.8 mph - N/A   Clear
11:15 AM 66.0 °F 51.6 °F 60% 29.81 in 10.0 mi NNW 4.6 mph - N/A   Clear
11:35 AM 67.5 °F 51.8 °F 57% 29.81 in 10.0 mi NNW 5.8 mph - N/A   Clear
11:55 AM 68.5 °F 51.1 °F 54% 29.81 in 10.0 mi NW 6.9 mph - N/A   Clear
12:15 PM 69.1 °F 49.6 °F 50% 29.81 in 10.0 mi NW 5.8 mph - N/A   Clear
12:35 PM 69.8 °F 47.1 °F 44% 29.81 in 10.0 mi NW 6.9 mph - N/A   Clear
12:56 PM 70.7 °F 46.6 °F 42% 29.81 in 10.0 mi NW 8.1 mph - N/A   Clear
1:15 PM 71.6 °F 45.7 °F 39% 29.81 in 10.0 mi NW 6.9 mph - N/A   Clear
1:36 PM 72.3 °F 45.7 °F 39% 29.81 in 10.0 mi NW 6.9 mph - N/A   Clear
1:56 PM 72.5 °F 45.1 °F 37% 29.81 in 10.0 mi NNE 9.2 mph - N/A   Clear
2:15 PM 72.5 °F 44.6 °F 37% 29.81 in 10.0 mi NNE 8.1 mph - N/A   Clear
2:35 PM 74.1 °F 46.0 °F 37% 29.82 in 10.0 mi North 3.5 mph - N/A   Clear
2:56 PM 72.9 °F 44.4 °F 36% 29.82 in 10.0 mi NNW 3.5 mph - N/A   Clear
3:15 PM 74.3 °F 44.4 °F 34% 29.82 in 10.0 mi NW 5.8 mph - N/A   Clear
3:35 PM 74.7 °F 45.5 °F 35% 29.82 in 10.0 mi NW 5.8 mph - N/A   Clear
3:56 PM 74.3 °F 43.2 °F 33% 29.82 in 10.0 mi North 5.8 mph - N/A   Clear
4:15 PM 75.6 °F 45.0 °F 34% 29.82 in 10.0 mi North 5.8 mph - N/A   Clear
4:36 PM 76.3 °F 44.1 °F 32% 29.82 in 10.0 mi NW 4.6 mph - N/A   Clear
4:55 PM 75.6 °F 44.2 °F 33% 29.82 in 10.0 mi WNW 3.5 mph - N/A   Clear
5:15 PM 75.9 °F 42.4 °F 30% 29.82 in 10.0 mi NW 5.8 mph - N/A   Clear
5:36 PM 76.1 °F 43.3 °F 31% 29.82 in 10.0 mi NNW 5.8 mph - N/A   Clear
5:56 PM 75.9 °F 44.4 °F 33% 29.82 in 10.0 mi North 5.8 mph - N/A   Clear
6:15 PM 75.2 °F 43.2 °F 32% 29.82 in 10.0 mi NNW 3.5 mph - N/A   Clear
6:36 PM 75.4 °F 43.3 °F 32% 29.82 in 10.0 mi Calm Calm - N/A   Clear
6:55 PM 75.4 °F 43.3 °F 32% 29.82 in 10.0 mi North 3.5 mph - N/A   Clear
7:15 PM 74.8 °F 44.2 °F 33% 29.82 in 10.0 mi Calm Calm - N/A   Clear
7:55 PM 72.3 °F 45.3 °F 38% 29.83 in 10.0 mi Calm Calm - N/A   Clear
8:15 PM 69.1 °F 45.3 °F 42% 29.84 in 10.0 mi Calm Calm - N/A   Clear
8:35 PM 67.1 °F 46.2 °F 47% 29.84 in 10.0 mi Calm Calm - N/A   Clear
8:55 PM 63.5 °F 48.0 °F 57% 29.85 in 10.0 mi Calm Calm - N/A   Clear
9:15 PM 61.5 °F 50.5 °F 67% 29.85 in 10.0 mi Calm Calm - N/A   Clear
9:35 PM 58.5 °F 52.2 °F 80% 29.85 in 10.0 mi Calm Calm - N/A   Clear
9:55 PM 57.0 °F 52.7 °F 85% 29.86 in 10.0 mi Calm Calm - N/A   Clear
10:15 PM 55.6 °F 52.9 °F 91% 29.86 in 10.0 mi Calm Calm - N/A   Clear
10:35 PM 54.7 °F 52.3 °F 92% 29.87 in 10.0 mi Calm Calm - N/A   Clear
10:55 PM 53.8 °F 51.8 °F 93% 29.87 in 10.0 mi Calm Calm - N/A   Clear
11:15 PM 53.1 °F 50.9 °F 92% 29.87 in 10.0 mi Calm Calm - N/A   Clear
11:35 PM 52.5 °F 50.4 °F 92% 29.87 in 10.0 mi Calm Calm - N/A   Clear
11:56 PM 51.8 °F 50.0 °F 94% 29.88 in 10.0 mi Calm Calm - N/A   Clear